Time,TemperatureF,DewpointF,PressureIn,WindDirection,WindDirectionDegrees,WindSpeedMPH,WindSpeedGustMPH,Humidity,HourlyPrecipIn,Conditions,Clouds,dailyrainin,SoftwareType,DateUTC
2013-01-15 00:00:00,-16.0,-20.0,-100.00,ESE,119,0.0,2.0,81,-99.99,,,-99.99,,2013-01-15 07:00:00,
2013-01-15 00:43:00,-16.0,-20.0,-100.00,ESE,119,0.0,2.0,81,-99.99,,,-99.99,,2013-01-15 07:43:00,
2013-01-15 00:53:00,-16.0,-20.0,-100.00,ESE,119,0.0,2.0,81,-99.99,,,-99.99,,2013-01-15 07:53:00,
2013-01-15 01:00:00,-17.0,-21.0,-100.00,NNE,21,0.0,2.0,80,-99.99,,,-99.99,,2013-01-15 08:00:00,
2013-01-15 01:43:00,-17.0,-21.0,-100.00,NNE,21,0.0,2.0,80,-99.99,,,-99.99,,2013-01-15 08:43:00,
2013-01-15 01:53:00,-17.0,-21.0,-100.00,NNE,21,0.0,2.0,80,-99.99,,,-99.99,,2013-01-15 08:53:00,
2013-01-15 02:00:00,-15.0,-19.0,-100.00,NNE,24,1.0,5.0,81,-99.99,,,-99.99,,2013-01-15 09:00:00,
2013-01-15 02:43:00,-15.0,-19.0,-100.00,NNE,24,1.0,5.0,81,-99.99,,,-99.99,,2013-01-15 09:43:00,
2013-01-15 02:52:00,-15.0,-19.0,-100.00,NNE,24,1.0,5.0,81,-99.99,,,-99.99,,2013-01-15 09:52:00,
2013-01-15 03:00:00,-15.0,-18.0,-100.00,NNE,33,1.0,2.0,82,-99.99,,,-99.99,,2013-01-15 10:00:00,
2013-01-15 03:42:00,-15.0,-18.0,-100.00,NNE,33,1.0,2.0,82,-99.99,,,-99.99,,2013-01-15 10:42:00,
2013-01-15 03:52:00,-15.0,-18.0,-100.00,NNE,33,1.0,2.0,82,-99.99,,,-99.99,,2013-01-15 10:52:00,
2013-01-15 04:00:00,-17.0,-21.0,-100.00,NE,56,0.0,1.0,81,-99.99,,,-99.99,,2013-01-15 11:00:00,
2013-01-15 04:43:00,-17.0,-21.0,-100.00,NE,56,0.0,1.0,81,-99.99,,,-99.99,,2013-01-15 11:43:00,
2013-01-15 04:53:00,-17.0,-21.0,-100.00,NE,56,0.0,1.0,81,-99.99,,,-99.99,,2013-01-15 11:53:00,
2013-01-15 05:00:00,-18.0,-22.0,-100.00,East,90,0.0,1.0,80,-99.99,,,-99.99,,2013-01-15 12:00:00,
2013-01-15 05:43:00,-18.0,-22.0,-100.00,East,90,0.0,1.0,80,-99.99,,,-99.99,,2013-01-15 12:43:00,
2013-01-15 05:53:00,-18.0,-22.0,-100.00,East,90,0.0,1.0,80,-99.99,,,-99.99,,2013-01-15 12:53:00,
2013-01-15 09:00:00,-10.0,-14.0,-100.00,WNW,290,0.0,2.0,83,-99.99,,,-99.99,,2013-01-15 16:00:00,
2013-01-15 09:43:00,-10.0,-14.0,-100.00,WNW,290,0.0,2.0,83,-99.99,,,-99.99,,2013-01-15 16:43:00,
2013-01-15 09:53:00,-10.0,-14.0,-100.00,WNW,290,0.0,2.0,83,-99.99,,,-99.99,,2013-01-15 16:53:00,
2013-01-15 10:00:00,-7.0,-10.0,-100.00,North,349,1.0,5.0,85,-99.99,,,-99.99,,2013-01-15 17:00:00,
2013-01-15 10:43:00,-7.0,-10.0,-100.00,North,349,1.0,5.0,85,-99.99,,,-99.99,,2013-01-15 17:43:00,
2013-01-15 10:53:00,-7.0,-10.0,-100.00,North,349,1.0,5.0,85,-99.99,,,-99.99,,2013-01-15 17:53:00,
2013-01-15 11:00:00,-5.0,-8.0,-100.00,North,350,3.0,10.0,86,-99.99,,,-99.99,,2013-01-15 18:00:00,
2013-01-15 11:43:00,-5.0,-8.0,-100.00,North,350,3.0,10.0,86,-99.99,,,-99.99,,2013-01-15 18:43:00,
2013-01-15 11:53:00,-5.0,-8.0,-100.00,North,350,3.0,10.0,86,-99.99,,,-99.99,,2013-01-15 18:53:00,
2013-01-15 12:00:00,-3.0,-6.0,-100.00,North,350,5.0,12.0,86,-99.99,,,-99.99,,2013-01-15 19:00:00,
2013-01-15 12:43:00,-3.0,-6.0,-100.00,North,350,5.0,12.0,86,-99.99,,,-99.99,,2013-01-15 19:43:00,
2013-01-15 12:53:00,-3.0,-6.0,-100.00,North,350,5.0,12.0,86,-99.99,,,-99.99,,2013-01-15 19:53:00,
2013-01-15 13:00:00,-2.0,-5.0,-100.00,NNW,346,6.0,11.0,87,-99.99,,,-99.99,,2013-01-15 20:00:00,
2013-01-15 13:44:00,-2.0,-5.0,-100.00,NNW,346,6.0,11.0,87,-99.99,,,-99.99,,2013-01-15 20:44:00,
2013-01-15 13:53:00,-2.0,-5.0,-100.00,NNW,346,6.0,11.0,87,-99.99,,,-99.99,,2013-01-15 20:53:00,
2013-01-15 14:00:00,0.0,-3.0,-100.00,NNW,346,4.0,9.0,87,-99.99,,,-99.99,,2013-01-15 21:00:00,
2013-01-15 14:43:00,0.0,-3.0,-100.00,NNW,346,4.0,9.0,87,-99.99,,,-99.99,,2013-01-15 21:43:00,
2013-01-15 14:53:00,0.0,-3.0,-100.00,NNW,346,4.0,9.0,87,-99.99,,,-99.99,,2013-01-15 21:53:00,
2013-01-15 15:00:00,1.0,-2.0,-100.00,NNW,346,3.0,7.0,88,-99.99,,,-99.99,,2013-01-15 22:00:00,
2013-01-15 15:43:00,1.0,-2.0,-100.00,NNW,346,3.0,7.0,88,-99.99,,,-99.99,,2013-01-15 22:43:00,
2013-01-15 15:53:00,1.0,-2.0,-100.00,NNW,346,3.0,7.0,88,-99.99,,,-99.99,,2013-01-15 22:53:00,
2013-01-15 16:00:00,1.0,-2.0,-100.00,North,349,3.0,7.0,88,-99.99,,,-99.99,,2013-01-15 23:00:00,
2013-01-15 16:43:00,1.0,-2.0,-100.00,North,349,3.0,7.0,88,-99.99,,,-99.99,,2013-01-15 23:43:00,
2013-01-15 16:53:00,1.0,-2.0,-100.00,North,349,3.0,7.0,88,-99.99,,,-99.99,,2013-01-15 23:53:00,
2013-01-15 17:00:00,1.0,-2.0,-100.00,North,352,1.0,5.0,88,-99.99,,,-99.99,,2013-01-16 00:00:00,
2013-01-15 17:43:00,1.0,-2.0,-100.00,North,352,1.0,5.0,88,-99.99,,,-99.99,,2013-01-16 00:43:00,
2013-01-15 17:53:00,1.0,-2.0,-100.00,North,352,1.0,5.0,88,-99.99,,,-99.99,,2013-01-16 00:53:00,
2013-01-15 18:00:00,0.0,-2.0,-100.00,East,92,0.0,2.0,88,-99.99,,,-99.99,,2013-01-16 01:00:00,
2013-01-15 18:43:00,0.0,-2.0,-100.00,East,92,0.0,2.0,88,-99.99,,,-99.99,,2013-01-16 01:43:00,
2013-01-15 18:53:00,0.0,-2.0,-100.00,East,92,0.0,2.0,88,-99.99,,,-99.99,,2013-01-16 01:53:00,
2013-01-15 19:00:00,0.0,-2.0,-100.00,East,90,0.0,3.0,88,-99.99,,,-99.99,,2013-01-16 02:00:00,
2013-01-15 19:43:00,0.0,-2.0,-100.00,East,90,0.0,3.0,88,-99.99,,,-99.99,,2013-01-16 02:43:00,
2013-01-15 19:53:00,0.0,-2.0,-100.00,East,90,0.0,3.0,88,-99.99,,,-99.99,,2013-01-16 02:53:00,
2013-01-15 20:00:00,2.0,-1.0,-100.00,North,359,1.0,4.0,89,-99.99,,,-99.99,,2013-01-16 03:00:00,
2013-01-15 20:43:00,2.0,-1.0,-100.00,North,359,1.0,4.0,89,-99.99,,,-99.99,,2013-01-16 03:43:00,
2013-01-15 20:53:00,2.0,-1.0,-100.00,North,359,1.0,4.0,89,-99.99,,,-99.99,,2013-01-16 03:53:00,
2013-01-15 21:00:00,3.0,1.0,-100.00,NNE,32,1.0,5.0,89,-99.99,,,-99.99,,2013-01-16 04:00:00,
2013-01-15 21:42:00,3.0,1.0,-100.00,NNE,32,1.0,5.0,89,-99.99,,,-99.99,,2013-01-16 04:42:00,
2013-01-15 21:52:00,3.0,1.0,-100.00,NNE,32,1.0,5.0,89,-99.99,,,-99.99,,2013-01-16 04:52:00,
2013-01-15 22:00:00,4.0,2.0,-100.00,NNW,344,0.0,1.0,90,-99.99,,,-99.99,,2013-01-16 05:00:00,
2013-01-15 22:42:00,4.0,2.0,-100.00,NNW,344,0.0,1.0,90,-99.99,,,-99.99,,2013-01-16 05:42:00,
2013-01-15 22:53:00,4.0,2.0,-100.00,NNW,344,0.0,1.0,90,-99.99,,,-99.99,,2013-01-16 05:53:00,
2013-01-15 23:00:00,5.0,2.0,-100.00,North,360,2.0,7.0,90,-99.99,,,-99.99,,2013-01-16 06:00:00,
2013-01-15 23:43:00,5.0,2.0,-100.00,North,360,2.0,7.0,90,-99.99,,,-99.99,,2013-01-16 06:43:00,
2013-01-15 23:53:00,5.0,2.0,-100.00,North,360,2.0,7.0,90,-99.99,,,-99.99,,2013-01-16 06:53:00,